TimeMST,TemperatureF,Dew PointF,Humidity,Sea Level PressureIn,VisibilityMPH,Wind Direction,Wind SpeedMPH,Gust SpeedMPH,PrecipitationIn,Events,Conditions,WindDirDegrees,DateUTC
12:53 AM,48.0,26.1,42,29.94,10.0,Calm,Calm,-,N/A,,Clear,0,2012-11-07 07:53:00
1:53 AM,46.0,26.1,46,29.92,10.0,Calm,Calm,-,N/A,,Clear,0,2012-11-07 08:53:00
2:53 AM,43.0,26.1,51,29.91,10.0,West,4.6,-,N/A,,Clear,280,2012-11-07 09:53:00
3:53 AM,44.1,25.0,47,29.87,10.0,Calm,Calm,-,N/A,,Clear,0,2012-11-07 10:53:00
4:53 AM,44.1,25.0,47,29.88,10.0,Variable,6.9,-,N/A,,Clear,0,2012-11-07 11:53:00
5:53 AM,46.9,23.0,39,29.87,10.0,Variable,5.8,-,N/A,,Clear,0,2012-11-07 12:53:00
6:53 AM,51.1,21.0,31,29.85,10.0,West,3.5,17.3,N/A,,Clear,270,2012-11-07 13:53:00
7:53 AM,53.1,19.9,27,29.86,10.0,WNW,9.2,-,N/A,,Clear,290,2012-11-07 14:53:00
8:53 AM,52.0,21.0,30,29.84,10.0,WSW,6.9,-,N/A,,Clear,250,2012-11-07 15:53:00
9:53 AM,61.0,23.0,23,29.78,10.0,Calm,Calm,-,N/A,,Clear,0,2012-11-07 16:53:00
10:53 AM,66.9,21.0,17,29.77,10.0,SE,6.9,-,N/A,,Clear,130,2012-11-07 17:53:00
11:53 AM,71.1,17.1,13,29.71,10.0,ESE,6.9,-,N/A,,Clear,120,2012-11-07 18:53:00
12:53 PM,73.0,19.0,13,29.69,10.0,ENE,9.2,-,N/A,,Clear,70,2012-11-07 19:53:00
1:53 PM,73.0,19.0,13,29.68,10.0,Variable,5.8,-,N/A,,Clear,0,2012-11-07 20:53:00
2:53 PM,72.0,19.0,13,29.68,10.0,WSW,9.2,-,N/A,,Clear,250,2012-11-07 21:53:00
3:53 PM,69.1,19.9,15,29.69,10.0,SW,9.2,-,N/A,,Clear,230,2012-11-07 22:53:00
4:53 PM,62.1,23.0,22,29.72,10.0,WSW,12.7,-,N/A,,Clear,240,2012-11-07 23:53:00
5:53 PM,59.0,24.1,26,29.73,10.0,WSW,6.9,-,N/A,,Clear,240,2012-11-08 00:53:00
6:53 PM,59.0,24.1,26,29.72,10.0,South,9.2,-,N/A,,Clear,190,2012-11-08 01:53:00
7:53 PM,55.0,25.0,31,29.73,10.0,West,6.9,-,N/A,,Clear,280,2012-11-08 02:53:00
8:53 PM,53.1,25.0,34,29.76,10.0,WNW,11.5,-,N/A,,Clear,290,2012-11-08 03:53:00
9:53 PM,48.0,35.1,61,29.80,10.0,NNW,35.7,48.3,N/A,,Clear,330,2012-11-08 04:53:00
10:53 PM,45.0,33.1,63,29.85,10.0,North,20.7,38.0,N/A,,Partly Cloudy,350,2012-11-08 05:53:00
11:53 PM,42.1,30.9,65,29.86,10.0,North,16.1,24.2,N/A,,Clear,10,2012-11-08 06:53:00